• Em Portugal
  • Lista de países
  • Para 7 dias
  • Temperatura da água
  • Mapas de satélite
  • Mapa do tempo
  • Widgets de tempo
  • user-avatar
    Iniciar Sessão

    Previsão horária em Primorsko

    Hoje, 15 Outubro, Segunda-feira

    Tempo Temperatura Precipitação Vento Pressão Humidade
    00:00 +14°C° 0 mm 5 m/s 766 mmHg 89%
    01:00 +14°C° 0 mm 5 m/s 766 mmHg 89%
    02:00 +14°C° 0 mm 5 m/s 766 mmHg 88%
    03:00 +14°C° 0 mm 5 m/s 766 mmHg 88%
    04:00 +14°C° 0 mm 5 m/s 766 mmHg 88%
    05:00 +14°C° 0 mm 5 m/s 765 mmHg 89%
    06:00 +15°C° 0 mm 6 m/s 765 mmHg 86%
    07:00 +15°C° 0 mm 6 m/s 765 mmHg 82%
    08:00 +16°C° 0 mm 6 m/s 766 mmHg 78%
    09:00 +19°C° 0 mm 6 m/s 766 mmHg 72%
    10:00 +20°C° 0 mm 6 m/s 766 mmHg 66%
    11:00 +21°C° 0 mm 6 m/s 766 mmHg 60%
    12:00 +22°C° 0.1 mm 6 m/s 765 mmHg 58%
    13:00 +22°C° 0.1 mm 6 m/s 765 mmHg 56%
    14:00 +22°C° 0 mm 6 m/s 765 mmHg 55%
    15:00 +21°C° 0.1 mm 6 m/s 765 mmHg 60%
    16:00 +20°C° 0.1 mm 6 m/s 765 mmHg 64%
    17:00 +19°C° 0.1 mm 6 m/s 765 mmHg 68%
    18:00 +17°C° 0 mm 5 m/s 765 mmHg 74%
    19:00 +16°C° 0 mm 5 m/s 765 mmHg 79%
    20:00 +15°C° 0 mm 5 m/s 765 mmHg 84%
    21:00 +15°C° 0 mm 5 m/s 765 mmHg 86%
    22:00 +15°C° 0 mm 4 m/s 765 mmHg 88%
    23:00 +14°C° 0 mm 4 m/s 765 mmHg 90%

    Amanhã, 16 Outubro, Terça-feira

    Tempo Temperatura Precipitação Vento Pressão Humidade
    00:00 +14°C° 0 mm 4 m/s 765 mmHg 90%
    01:00 +14°C° 0 mm 4 m/s 765 mmHg 91%
    02:00 +14°C° 0 mm 4 m/s 765 mmHg 91%
    03:00 +13°C° 0 mm 4 m/s 765 mmHg 92%
    04:00 +13°C° 0 mm 4 m/s 765 mmHg 92%
    05:00 +13°C° 0 mm 4 m/s 765 mmHg 92%
    06:00 +14°C° 0 mm 4 m/s 765 mmHg 89%
    07:00 +14°C° 0 mm 4 m/s 765 mmHg 86%
    08:00 +15°C° 0 mm 4 m/s 765 mmHg 82%
    09:00 +18°C° 0 mm 4 m/s 765 mmHg 76%
    10:00 +20°C° 0 mm 4 m/s 765 mmHg 70%
    11:00 +21°C° 0 mm 4 m/s 765 mmHg 63%
    12:00 +22°C° 0 mm 4 m/s 765 mmHg 62%
    13:00 +23°C° 0 mm 5 m/s 765 mmHg 62%
    14:00 +23°C° 0 mm 5 m/s 765 mmHg 61%
    15:00 +22°C° 0 mm 5 m/s 765 mmHg 66%
    16:00 +21°C° 0 mm 4 m/s 765 mmHg 71%
    17:00 +20°C° 0 mm 4 m/s 764 mmHg 76%
    18:00 +19°C° 0 mm 4 m/s 765 mmHg 80%
    19:00 +18°C° 0 mm 3 m/s 765 mmHg 84%
    20:00 +17°C° 0 mm 3 m/s 765 mmHg 87%
    21:00 +17°C° 0 mm 3 m/s 765 mmHg 86%
    22:00 +17°C° 0 mm 3 m/s 765 mmHg 86%
    23:00 +16°C° 0 mm 3 m/s 765 mmHg 85%

    Depois de amanhã, 17 Outubro, Quarta-feira

    Tempo Temperatura Precipitação Vento Pressão Humidade
    00:00 +16°C° 0 mm 3 m/s 764 mmHg 85%
    01:00 +16°C° 0 mm 3 m/s 764 mmHg 84%
    02:00 +14°C° 0 mm 3 m/s 764 mmHg 84%
    03:00 +14°C° 0 mm 3 m/s 764 mmHg 83%
    04:00 +14°C° 0 mm 4 m/s 764 mmHg 83%
    05:00 +14°C° 0 mm 4 m/s 763 mmHg 82%
    06:00 +15°C° 0 mm 4 m/s 764 mmHg 78%
    07:00 +15°C° 0 mm 4 m/s 764 mmHg 74%
    08:00 +17°C° 0 mm 4 m/s 764 mmHg 70%
    09:00 +19°C° 0 mm 5 m/s 764 mmHg 67%
    10:00 +20°C° 0 mm 5 m/s 764 mmHg 64%
    11:00 +22°C° 0 mm 5 m/s 763 mmHg 61%
    12:00 +22°C° 0 mm 5 m/s 763 mmHg 63%
    13:00 +22°C° 0 mm 5 m/s 763 mmHg 64%
    14:00 +22°C° 0 mm 5 m/s 763 mmHg 65%
    15:00 +22°C° 0 mm 5 m/s 762 mmHg 67%
    16:00 +21°C° 0 mm 4 m/s 762 mmHg 69%
    17:00 +20°C° 0 mm 4 m/s 762 mmHg 71%
    18:00 +19°C° 0 mm 4 m/s 762 mmHg 77%
    19:00 +19°C° 0 mm 4 m/s 762 mmHg 82%
    20:00 +18°C° 0 mm 4 m/s 762 mmHg 88%
    21:00 +17°C° 0 mm 4 m/s 762 mmHg 90%
    22:00 +17°C° 0 mm 4 m/s 762 mmHg 93%
    23:00 +17°C° 0 mm 3 m/s 762 mmHg 95%

    18 Outubro, Quinta-feira

    Tempo Temperatura Precipitação Vento Pressão Humidade
    00:00 +17°C° 0 mm 4 m/s 762 mmHg 95%
    01:00 +17°C° 0 mm 4 m/s 762 mmHg 95%
    02:00 +17°C° 0 mm 4 m/s 762 mmHg 95%
    03:00 +15°C° 0.1 mm 4 m/s 762 mmHg 95%
    04:00 +15°C° 0.1 mm 4 m/s 762 mmHg 95%
    05:00 +15°C° 0.1 mm 4 m/s 761 mmHg 95%
    06:00 +15°C° 0.1 mm 4 m/s 762 mmHg 93%
    07:00 +17°C° 0.1 mm 4 m/s 762 mmHg 91%
    08:00 +17°C° 0.1 mm 4 m/s 762 mmHg 89%
    09:00 +18°C° 0.1 mm 4 m/s 762 mmHg 85%
    10:00 +19°C° 0.1 mm 4 m/s 762 mmHg 80%
    11:00 +20°C° 0.1 mm 4 m/s 762 mmHg 76%
    12:00 +21°C° 0 mm 4 m/s 761 mmHg 72%
    13:00 +22°C° 0 mm 4 m/s 761 mmHg 69%
    14:00 +22°C° 0 mm 4 m/s 761 mmHg 66%
    15:00 +22°C° 0 mm 4 m/s 761 mmHg 70%
    16:00 +21°C° 0 mm 4 m/s 761 mmHg 74%
    17:00 +20°C° 0 mm 3 m/s 761 mmHg 78%
    18:00 +19°C° 0 mm 3 m/s 761 mmHg 83%
    19:00 +18°C° 0 mm 3 m/s 761 mmHg 88%
    20:00 +17°C° 0 mm 2 m/s 761 mmHg 94%
    21:00 +17°C° 0 mm 2 m/s 761 mmHg 94%
    22:00 +17°C° 0 mm 2 m/s 762 mmHg 95%
    23:00 +16°C° 0 mm 2 m/s 762 mmHg 96%

    19 Outubro, Sexta-feira

    Tempo Temperatura Precipitação Vento Pressão Humidade
    00:00 +16°C° 0 mm 2 m/s 762 mmHg 96%
    01:00 +16°C° 0 mm 2 m/s 762 mmHg 96%
    02:00 +16°C° 0 mm 2 m/s 762 mmHg 96%
    03:00 +16°C° 0 mm 2 m/s 762 mmHg 96%
    04:00 +16°C° 0 mm 2 m/s 762 mmHg 95%
    05:00 +16°C° 0 mm 2 m/s 762 mmHg 95%
    06:00 +17°C° 0 mm 2 m/s 762 mmHg 93%
    07:00 +17°C° 0 mm 2 m/s 762 mmHg 90%
    08:00 +17°C° 0 mm 2 m/s 762 mmHg 87%
    09:00 +19°C° 0 mm 2 m/s 762 mmHg 78%
    10:00 +21°C° 0 mm 2 m/s 762 mmHg 69%
    11:00 +24°C° 0 mm 1 m/s 762 mmHg 60%
    12:00 +24°C° 0 mm 2 m/s 762 mmHg 57%
    13:00 +25°C° 0 mm 2 m/s 762 mmHg 55%
    14:00 +25°C° 0 mm 2 m/s 761 mmHg 52%
    15:00 +24°C° 0 mm 2 m/s 761 mmHg 56%
    16:00 +23°C° 0 mm 2 m/s 761 mmHg 61%
    17:00 +21°C° 0 mm 2 m/s 761 mmHg 65%
    18:00 +20°C° 0 mm 2 m/s 762 mmHg 71%
    19:00 +20°C° 0 mm 1 m/s 762 mmHg 76%
    20:00 +19°C° 0 mm 1 m/s 762 mmHg 82%
    21:00 +19°C° 0 mm 1 m/s 762 mmHg 82%
    22:00 +18°C° 0 mm 1 m/s 762 mmHg 83%
    23:00 +16°C° 0 mm 0 m/s 762 mmHg 83%

    20 Outubro, Sábado

    Tempo Temperatura Precipitação Vento Pressão Humidade
    00:00 +18°C° 0 mm 1 m/s 762 mmHg 82%
    01:00 +18°C° 0 mm 1 m/s 762 mmHg 82%
    02:00 +18°C° 0 mm 1 m/s 762 mmHg 81%
    03:00 +16°C° 0 mm 1 m/s 762 mmHg 81%
    04:00 +16°C° 0 mm 1 m/s 762 mmHg 81%
    05:00 +16°C° 0 mm 1 m/s 762 mmHg 80%
    06:00 +18°C° 0 mm 1 m/s 762 mmHg 76%
    07:00 +19°C° 0 mm 1 m/s 762 mmHg 72%
    08:00 +19°C° 0 mm 1 m/s 763 mmHg 68%
    09:00 +21°C° 0 mm 1 m/s 763 mmHg 61%
    10:00 +23°C° 0 mm 1 m/s 763 mmHg 55%
    11:00 +25°C° 0 mm 2 m/s 763 mmHg 49%
    12:00 +25°C° 0 mm 2 m/s 762 mmHg 47%
    13:00 +26°C° 0 mm 2 m/s 762 mmHg 45%
    14:00 +26°C° 0 mm 2 m/s 762 mmHg 43%
    15:00 +25°C° 0 mm 2 m/s 762 mmHg 48%
    16:00 +24°C° 0 mm 2 m/s 762 mmHg 52%
    17:00 +23°C° 0 mm 2 m/s 762 mmHg 57%
    18:00 +22°C° 0 mm 1 m/s 762 mmHg 62%
    19:00 +20°C° 0 mm 1 m/s 762 mmHg 66%
    20:00 +19°C° 0 mm 1 m/s 763 mmHg 71%
    21:00 +19°C° 0 mm 1 m/s 763 mmHg 71%
    22:00 +19°C° 0 mm 1 m/s 763 mmHg 72%
    23:00 +18°C° 0 mm 1 m/s 763 mmHg 72%
    Mostrar mais